Location: Newark
(44.3449°N, 4.8694°E)
Time: 00:56:35
(UTC+00:00)

Envisat - Pass Details

Date: 20 January 2020
Orbit: 764 x 766 km, 98.1° (Epoch: 20 February)

Event Time Altitude Azimuth Distance (km) Brightness Sun altitude
Rises 17:13:02 0° 158° (SSE) 3,220 6.2 -7.4°
Reaches altitude 10° 17:15:20 10° 157° (SSE) 2,298 5.5 -7.8°
Maximum altitude 17:20:22 71° 74° (ENE) 813 3.0 -8.6°
Drops below altitude 10° 17:25:27 10° 351° (N) 2,314 5.4 -9.5°
Sets 17:27:46 0° 349° (N) 3,244 6.2 -9.9°
